Other Public Products
Issued by NWS Charleston, SC

Current Version | Previous Version | Text Only | Print | Product List | Glossary On
Versions: 1 2 3 4 5 6 7 8 9 10 11 12 13 14 15 16 17 18 19 20 21 22 23 24 25 26 27 28 29 30 31 32 33 34 35 36 37 38 39 40 41 42 43 44 45 46 47 48 49 50
892 FPUS82 KCHS 181727 OPUCHS TEST...KCHS/KSAV Gateway Observations...TEST National Weather Service Charleston SC 1200 PM EST SAT NOV 18 2017 NOTE: "fair" indicates few or no clouds below 12,000 feet with no significant weather and/or obstructions to visibility. SCZ050-WAZ558-NCZ071-TXZ119-213-PAZ071-DCZ001-FLZ074-172-MI076- NYZ176-178-MAZ016-IL014-TNZ027-NJZ106-GAZ044-MD014-181800- ...Gateway Observations for Charleston International... CITY SKY/WX TMP DP RH WIND PRES REMARKS Chas Airport PTSUNNY 73 58 59 S7 29.98F Seattle CLOUDY 46 38 73 SE7 30.29R Charlotte PTSUNNY 61 46 57 SW17G24 29.93F Dallas DFW PTSUNNY 68 42 38 N30G43 29.95R Dallas Love MOSUNNY 66 44 45 NW30G38 29.96R Philladelphia CLOUDY 50 36 58 S10 29.82F Wash National CLOUDY 55 39 54 S13G21 29.76F Baltimore CLOUDY 55 36 48 S10 29.75F Miami PTSUNNY 82 63 52 NE10 29.99F Detroit HVY RAIN 46 46 100 CALM 29.41F VSB 1 Newark CLOUDY 48 33 56 S9 29.82F Laguardia CLOUDY 48 31 51 S15G23 29.82F J F K PTSUNNY 49 38 65 S15 29.85F Boston Logan CLOUDY 44 18 35 S8 29.86F Ft. Lauderdale MOSUNNY 79 65 62 NE12 29.98F Chicago O`Hare RAIN 38 35 89 N14 29.47S FOG WCI 30 Chicago Midway LGT RAIN 41 39 93 N21G32 29.45F Houston Bush CLOUDY 79 70 74 W13 29.88R Houston Hobby PTSUNNY 79 70 74 SW17 29.86F Nashville CLOUDY 65 58 78 S17G25 29.66F Atlanta MOSUNNY 65 55 70 S9 29.93F $$ GAZ044-118-TXZ119-213-NCZ071-DCZ001-MDZ014-506-PAZ021-071-NJZ106- NYZ176-178-MAZ106-OHZ011-021-055-MIZ076-KYZ091-ILZ014-INZ047- MNZ060-ONZ431-181800- ...Gateway Observations for Savannah International... CITY SKY/WX TMP DP RH WIND PRES REMARKS Savannah Arpt PTSUNNY 74 57 55 S12 30.00F Atlanta MOSUNNY 65 55 70 S9 29.93F Charlotte PTSUNNY 61 46 57 SW17G24 29.93F Dallas DFW PTSUNNY 68 42 38 N30G43 29.95R Houston Bush CLOUDY 79 70 74 W13 29.88R Wash National CLOUDY 55 39 54 S13G21 29.76F Wash Dulles PTSUNNY 55 38 52 S14 29.73F Baltimore CLOUDY 55 36 48 S10 29.75F Philadelphia CLOUDY 50 36 58 S10 29.82F Newark CLOUDY 48 33 56 S9 29.82F Laguardia CLOUDY 48 31 51 S15G23 29.82F J F K PTSUNNY 49 38 65 S15 29.85F Boston CLOUDY 44 18 35 S8 29.86F Pittsburg LGT RAIN 45 44 97 S9 29.54F Akron RAIN 48 44 86 S12 29.50F VSB 1 Cleveland LGT RAIN 50 47 89 S12 29.48F FOG Cincinnati CLOUDY 63 57 81 SW16G39 29.40F Columbus CLOUDY 59 51 76 S17G28 29.41F Detroit HVY RAIN 46 46 100 CALM 29.41F VSB 1 Chicago O`Hare RAIN 38 35 89 N14 29.47S FOG WCI 30 Minneapolis SUNNY 35 25 66 NW18 29.82R WCI 24 Indianapolis CLOUDY 65 58 78 SW31G43 29.29F Toronto Canada DRIZZLE 45 43 93 SE2 29.44 FOG $$

USA.gov is the U.S. government's official web portal to all federal, state and local government web resources and services.